Altoona, PA

8:08 AM EDT on August 24, 2019 (GMT -0400)
Altoona-Blair County

Weather History for KAOO - May, 2019

Change the Weather History Date:

Sunday, May 26, 2019

  Actual Average Record
Temperature  
Mean Temperature 72 °F 61 °F  
Max Temperature 81 °F 72 °F 88 °F (2018)
Min Temperature 63 °F 50 °F 36 °F (1988)
Degree Days  
Heating Degree Days 0 6  
Month to date heating degree days 116 218  
Since 1 July heating degree days 5670 6136  
Cooling Degree Days 7 1  
Month to date cooling degree days 42 16  
Year to date cooling degree days 42 22  
Growing Degree Days 22 (Base 50)    
Moisture  
Dew Point 62 °F    
Average Humidity 69    
Maximum Humidity 87    
Minimum Humidity 51    
Precipitation  
Precipitation 0.13 in 0.12 in 1.01 in (2012)
Month to date precipitation 4.55 3.11  
Year to date precipitation 17.36 13.58  
Sea Level Pressure  
Sea Level Pressure 30.02 in    
Wind  
Wind Speed 8 mph (West)    
Max Wind Speed 26 mph    
Max Gust Speed 36 mph    
Visibility 10 miles    
Events Rain , Thunderstorm    
T = Trace of Precipitation, MM = Missing Value Source: NWS Daily Summary

Daily Weather History Graph

Daily Weather History Graph

Search for Another Location

Airport or City:

Astronomy

May. 26, 2019 Rise Set
Actual Time 5:48 AM EDT 8:32 PM EDT
Civil Twilight 5:17 AM EDT 9:04 PM EDT
Nautical Twilight 4:37 AM EDT 9:44 PM EDT
Astronomical Twilight 3:51 AM EDT 10:29 PM EDT
Moon 2:03 AM EDT (5/26) 12:44 PM EDT (5/26)
Length of Visible Light 15h 47m
Length of Day
14h 43m
Waning Gibbous, 50% of the Moon is Illuminated
May 26
Waning Gibbous
May 26
Last Quarter
Jun 3
New
Jun 10
First Quarter
Jun 17
Full

Hourly Weather History & Observations

Time (EDT) Temp. Heat Index Dew Point Humidity Pressure Visibility Wind Dir Wind Speed Gust Speed Precip Events Conditions
12:53 AM 69.1 °F - 63.0 °F 81% 30.00 in 10.0 mi South 8.1 mph - N/A   Clear
1:53 AM 68.0 °F - 62.1 °F 81% 30.00 in 10.0 mi South 8.1 mph - N/A   Clear
2:53 AM 68.0 °F - 61.0 °F 78% 30.00 in 10.0 mi South 5.8 mph - N/A   Partly Cloudy
3:53 AM 66.0 °F - 61.0 °F 84% 30.01 in 10.0 mi SW 3.5 mph - N/A   Scattered Clouds
4:53 AM 64.9 °F - 61.0 °F 87% 30.04 in 10.0 mi WSW 6.9 mph - N/A   Clear
5:53 AM 66.0 °F - 61.0 °F 84% 30.03 in 10.0 mi WSW 6.9 mph - N/A   Clear
6:53 AM 66.0 °F - 61.0 °F 84% 30.04 in 10.0 mi Calm Calm - N/A   Clear
7:53 AM 70.0 °F - 64.0 °F 81% 30.04 in 10.0 mi SSE 4.6 mph - N/A   Clear
8:53 AM 73.0 °F - 64.0 °F 73% 30.05 in 10.0 mi SW 9.2 mph - N/A   Clear
9:13 AM 73.9 °F - 64.0 °F 71% 30.08 in 10.0 mi SW 8.1 mph - N/A   Mostly Cloudy
9:29 AM 73.9 °F - 64.0 °F 71% 30.08 in 10.0 mi SW 9.2 mph - 0.00 in Rain Light Rain
9:53 AM 75.9 °F - 66.0 °F 71% 30.04 in 10.0 mi WSW 11.5 mph - 0.00 in   Partly Cloudy
10:53 AM 78.1 °F - 66.0 °F 66% 30.02 in 10.0 mi West 9.2 mph - N/A   Clear
11:53 AM 78.1 °F - 66.0 °F 66% 30.01 in 10.0 mi WNW 5.8 mph - N/A Thunderstorm Scattered Clouds
12:09 PM 75.0 °F - 63.0 °F 66% 30.06 in 7.0 mi North 25.3 mph 35.7 mph 0.00 in Rain , Thunderstorm Light Thunderstorms and Rain
12:13 PM 68.0 °F - 60.1 °F 76% 30.06 in 1.5 mi North 19.6 mph 35.7 mph 0.09 in Rain , Thunderstorm Light Thunderstorms and Rain
12:28 PM 69.1 °F - 62.1 °F 78% 30.05 in 10.0 mi NW 6.9 mph - 0.10 in Rain , Thunderstorm Light Thunderstorms and Rain
12:38 PM 70.0 °F - 64.0 °F 81% 30.05 in 10.0 mi Variable 5.8 mph - 0.10 in Thunderstorm Overcast
12:48 PM 71.6 °F - 64.4 °F 78% 30.06 in 10.0 mi NW 8.1 mph - 0.10 in Rain Light Rain
12:53 PM 71.1 °F - 64.0 °F 78% 30.03 in 5.0 mi NW 6.9 mph - 0.11 in Rain Light Rain
1:53 PM 75.9 °F - 66.0 °F 71% 30.01 in 10.0 mi WNW 15.0 mph - 0.02 in   Clear
2:53 PM 78.1 °F - 64.0 °F 62% 30.00 in 10.0 mi West 12.7 mph - N/A   Scattered Clouds
3:53 PM 80.1 °F 80.9 °F 60.1 °F 50% 29.98 in 10.0 mi West 15.0 mph 21.9 mph N/A   Scattered Clouds
4:53 PM 80.1 °F 81.1 °F 61.0 °F 52% 29.95 in 10.0 mi WNW 10.4 mph - N/A   Clear
5:53 PM 78.1 °F - 60.1 °F 54% 29.95 in 10.0 mi WNW 12.7 mph - N/A   Partly Cloudy
6:53 PM 75.9 °F - 62.1 °F 62% 29.96 in 10.0 mi WNW 5.8 mph - N/A   Mostly Cloudy
7:53 PM 75.0 °F - 59.0 °F 57% 29.96 in 10.0 mi NW 9.2 mph - N/A   Clear
8:53 PM 72.0 °F - 60.1 °F 66% 29.98 in 10.0 mi NNW 4.6 mph - N/A   Clear
9:53 PM 70.0 °F - 60.1 °F 71% 30.00 in 10.0 mi North 5.8 mph - N/A   Scattered Clouds
10:53 PM 69.1 °F - 60.1 °F 73% 29.99 in 10.0 mi NW 3.5 mph - 0.00 in   Overcast
11:53 PM 68.0 °F - 60.1 °F 76% 29.98 in 10.0 mi Calm Calm - N/A   Overcast